Home > Weather > Yuma > Past weeks

Flag for USA Past Weather in Yuma, Arizona, USA — Yesterday and Last 2 Weeks

Now
91 °F

Sunny.


Feels Like: 87 °F
Forecast: 66 / 91 °F
Wind: 16 mph from South

Location: Yuma Marine Corps Air Station

Current Time: May 28, 2016 at 7:02:25 PM

Latest Report: May 28, 2016 at 5:57 PM


Visibility: 10 mi

Pressure: 29.72 "Hg

Humidity: 12%

Dew Point: 31 °F

Location of YumaLocation

Past Weather in Yuma — Graph

°F

Yuma Temperature Yesterday

Maximum temperature yesterday: 92 °F (at 2:57 PM)
Minimum temperature yesterday: 66 °F (at 5:57 AM)
Average temperature yesterday: 80 °F

High & Low Weather Summary for the Past Weeks

 TemperatureHumidityPressure
High102 °F (May 13, 5:57 PM)85% (May 17, 7:57 PM)29.96 "Hg (May 17, 7:57 PM)
Low60 °F (May 22, 5:57 AM)10% (May 14, 2:57 PM)29.62 "Hg (May 20, 4:57 PM)
Average78 °F33%29.79 "Hg
* Reported May 13 5:57 PM — May 28 5:57 PM, Yuma, Weather by CustomWeather, © 2016

Note: Actual official high and low records may vary slightly from our data, if they occured in-between our weather recording intervals... More about our weather records

Advertising

Yuma Weather History for the Previous 24 Hours

Scroll right to see more
 ConditionsComfort  
Time TempWeatherWind HumidityBarometerVisibility
5:57 PM
Sat, May 28
91 °FSunny.16 mph12%29.72 "Hg10 mi
4:57 PM93 °FSunny.20 mph10%29.72 "Hg10 mi
3:57 PM95 °FSunny.21 mph12%29.71 "Hg10 mi
2:57 PM96 °FSunny.20 mph12%29.72 "Hg10 mi
1:57 PM94 °FSunny.8 mph13%29.74 "Hg10 mi
12:57 PM93 °FSunny.10 mph12%29.76 "Hg10 mi
11:57 AM90 °FSunny.3 mph14%29.78 "Hg10 mi
10:57 AM90 °FSunny.14 mph14%29.78 "Hg10 mi
9:57 AM85 °FSunny.10 mph19%29.78 "Hg10 mi
8:57 AM83 °FSunny.12 mph19%29.78 "Hg10 mi
7:57 AM79 °FSunny.No wind21%29.77 "Hg10 mi
6:57 AM74 °FSunny.3 mph29%29.76 "Hg10 mi
5:57 AM68 °FSunny.3 mph36%29.74 "Hg10 mi
4:57 AM71 °FClear.3 mph24%29.73 "Hg10 mi
3:57 AM72 °FClear.No wind26%29.72 "Hg10 mi
2:57 AM71 °FClear.6 mph27%29.71 "Hg10 mi
1:57 AM75 °FClear.10 mph22%29.72 "Hg10 mi
12:57 AM72 °FClear.6 mph34%29.74 "Hg10 mi
11:57 PM
Fri, May 27
75 °FClear.5 mph30%29.74 "Hg10 mi
10:57 PM76 °FClear.3 mph30%29.74 "Hg10 mi
9:57 PM79 °FClear.6 mph24%29.74 "Hg10 mi
8:57 PM83 °FClear.12 mph21%29.73 "Hg10 mi
7:57 PM87 °FClear.6 mph22%29.71 "Hg10 mi
Weather by CustomWeather, © 2016

See weather overviewHow to use our weather pages